Tracking 27112 objects as of 26-Mar-2023
HD Live streaming from Space Station
objects crossing your sky now

SPACEBEE-54

Track SPACEBEE-54 now!
10-day predictions


NORAD ID: 47460
Int'l Code: 2021-006AZ
Perigee: 357.8 km
Apogee: 369.8 km
Inclination: 97.4 °
Period: 91.7 minutes
Semi major axis: 6734 km
RCS: Unknown
Launch date: January 24, 2021
Source: United States (US)
Launch site: ()
Your satellite tracking list
Your tracking list is empty




NASA's NSSDC Master Catalog

Two Line Element Set (TLE):
1 47460U 21006AZ  23085.12064237  .00634496  00000-0  47482-2 0  9992
2 47460  97.3862 151.4667 0008906 279.3124  80.7131 15.70786590120516
Source of the keplerian elements: AFSPC